GFSSW_sfc_temp_333.txt.gz
Temp
63 63 62 62 62 62 62 62 62 62 62 62 62 62 62 62 61 64 68 80 79 78 78 86 86 86 85 79 82 79 65 62 69 70 71 76 75 78 83 78 81 89 86 86 90
62 62 62 62 62 61 61 61 62 62 62 62 62 62 62 62 64 70 81 77 78 78 82 81 81 84 76 78 78 74 62 67 79 78 73 78 78 80 80 77 80 84 89 91 91
62 62 62 62 62 61 61 61 61 62 62 62 62 62 62 62 65 78 79 76 78 78 84 84 84 83 75 75 78 76 69 79 81 77 76 73 70 72 74 74 82 81 85 88 87
61 62 62 61 61 61 61 61 61 62 62 62 62 62 62 65 63 80 78 78 78 81 83 83 81 75 69 70 81 69 81 83 83 79 74 68 71 66 70 77 87 87 88 87 87
61 61 61 61 61 61 61 61 61 61 62 62 62 63 62 66 73 83 78 78 84 82 82 79 78 75 70 76 80 74 77 79 74 73 69 71 69 69 69 78 89 90 90 86 84
60 60 61 61 61 61 61 60 60 61 61 62 63 62 64 65 90 86 84 84 86 83 84 83 81 84 78 77 74 79 80 78 73 73 76 70 69 69 72 75 82 88 84 83 83
60 60 60 60 61 61 61 60 60 61 62 63 64 70 71 74 93 89 89 87 89 90 86 90 88 82 81 77 83 80 73 77 69 69 72 80 71 70 82 83 84 83 82 82 81
60 59 60 60 61 61 61 61 60 62 63 64 65 68 69 91 91 91 90 90 92 94 92 92 90 82 76 81 82 74 71 61 76 74 72 76 63 72 84 83 79 81 82 80 78
59 59 59 60 61 61 60 60 61 64 64 65 63 64 72 88 90 95 93 90 93 93 91 101 85 76 79 70 65 66 60 64 73 81 73 73 70 81 84 82 79 78 79 78 76
59 58 58 59 60 60 59 61 65 64 65 76 79 70 80 84 93 96 95 96 90 88 85 80 73 67 67 63 54 60 62 65 68 75 77 71 69 79 82 81 79 78 78 77 75
59 58 58 59 60 60 59 73 74 70 70 75 78 81 88 96 97 91 95 90 88 80 68 75 63 59 67 71 73 72 69 69 71 78 74 71 73 77 79 78 77 77 76 76 74
58 58 58 58 58 60 57 69 80 81 71 85 86 87 92 95 86 89 93 81 78 69 74 68 62 73 78 78 76 73 69 66 72 79 74 69 68 74 78 76 78 78 77 75 73
58 58 58 57 60 67 78 81 90 86 67 78 85 85 87 89 83 84 88 83 76 71 71 65 73 83 80 76 75 69 65 68 68 74 73 70 63 69 77 79 78 79 80 75 73
58 58 57 56 67 73 74 88 90 84 58 72 81 86 88 87 81 94 92 84 77 72 74 71 81 80 74 73 73 63 76 77 75 66 56 68 51 64 70 74 76 74 76 73 73
58 58 57 56 60 67 79 87 89 76 45 80 82 93 89 81 82 84 92 84 75 77 75 71 75 73 70 74 78 70 77 72 73 63 59 64 54 62 67 66 69 73 74 74 74
57 57 57 64 64 73 81 87 79 56 49 77 83 79 76 81 83 85 84 86 85 76 78 76 83 79 77 81 80 80 73 69 66 59 49 58 56 62 62 67 70 73 76 76 74
56 57 55 66 63 81 79 73 54 49 77 74 76 81 76 75 78 79 76 69 64 58 61 72 74 77 82 71 75 72 59 47 46 47 48 64 58 67 68 74 74 74 76 76 75
55 54 58 71 74 78 73 61 47 66 71 83 81 79 73 77 76 78 72 66 72 69 63 59 58 74 81 73 65 63 60 48 42 44 50 64 56 63 72 75 75 76 75 77 73
53 62 67 74 78 77 62 49 54 66 78 75 78 71 70 77 74 73 70 69 73 72 60 58 63 79 82 80 73 65 57 65 54 53 48 54 64 69 73 72 75 75 75 70 72
52 57 64 78 81 73 57 52 62 76 76 75 66 71 63 70 69 68 68 75 75 79 73 67 58 74 79 79 74 66 69 54 51 41 40 51 54 55 62 66 71 70 71 70 70
52 56 75 83 77 64 53 58 68 78 78 72 69 67 68 67 68 67 69 76 79 78 75 67 61 64 72 64 64 63 58 58 56 52 44 42 50 65 66 67 67 69 72 70 70
57 54 78 81 60 60 58 65 66 74 79 76 73 69 66 67 65 65 67 73 79 76 69 70 60 54 62 72 76 69 64 59 47 48 50 48 48 70 70 71 70 70 73 71 72
54 60 76 73 54 58 64 70 74 73 74 74 71 72 70 64 58 65 68 78 79 70 61 63 54 48 54 61 68 63 67 64 58 54 49 45 46 68 71 71 72 70 71 72 71
54 53 62 64 65 60 59 62 65 77 76 77 72 71 66 63 65 62 67 76 78 75 66 66 58 53 47 55 61 59 65 64 57 47 50 53 57 65 67 67 69 71 73 72 70
54 54 61 54 61 62 61 63 63 63 72 74 67 68 64 56 60 60 67 70 76 68 68 62 53 55 60 66 68 67 67 67 63 60 54 59 58 65 67 67 68 70 71 74 73
51 54 58 56 59 59 57 58 61 65 66 64 61 69 67 58 61 59 64 60 61 65 59 60 51 57 56 66 66 63 67 67 68 68 64 66 61 69 71 70 67 70 71 70 68
59 59 55 53 56 56 57 61 64 67 69 71 68 65 62 65 67 64 62 64 63 60 59 57 53 51 46 61 61 54 62 66 67 67 63 55 60 65 66 67 66 69 69 66 65

GFSSW_sfc_temp_336.txt.gz
Temp
63 62 62 62 62 61 61 61 62 62 62 62 62 62 62 62 61 59 65 77 76 75 76 79 78 78 75 71 74 73 61 56 60 65 63 71 67 79 80 79 79 83 82 83 84
62 62 62 62 62 61 61 61 61 61 61 62 62 62 62 61 58 65 77 76 76 78 77 74 76 77 70 70 73 68 58 60 73 73 65 69 70 73 76 76 77 79 85 85 84
62 62 62 62 62 61 61 61 61 61 62 62 62 62 61 61 61 75 79 77 76 78 77 76 75 72 63 66 70 67 64 71 75 76 75 74 74 83 77 73 78 78 81 84 83
61 62 62 61 61 61 61 61 61 62 62 62 62 62 62 60 60 79 77 76 76 76 76 75 72 65 65 64 72 69 73 73 74 78 76 75 77 77 77 76 80 82 85 84 83
61 61 61 61 61 61 61 61 61 61 61 61 62 62 61 63 70 82 77 77 77 77 74 72 69 65 62 70 73 69 68 74 75 69 68 74 71 72 74 78 80 84 85 80 76
60 60 60 61 61 61 61 60 60 60 61 62 62 62 62 63 83 81 81 77 79 74 76 75 73 75 72 68 66 70 72 70 66 68 69 71 68 72 77 80 79 81 80 77 77
59 59 60 60 61 61 61 60 59 60 62 63 63 67 64 71 85 80 81 79 80 84 79 80 79 75 72 73 73 72 64 66 66 67 67 72 66 69 77 78 76 77 77 76 76
59 59 59 60 60 61 61 61 60 60 63 63 64 64 66 84 82 79 78 83 85 84 83 85 81 74 70 72 75 71 66 58 65 69 71 70 60 69 78 76 74 77 77 75 74
59 58 58 59 60 60 60 60 61 62 64 64 61 61 68 85 85 88 85 85 85 86 86 95 80 71 74 63 60 62 57 58 64 71 73 66 62 72 78 77 76 75 74 74 72
59 58 58 59 59 59 59 60 63 62 64 70 74 65 74 80 88 91 88 89 86 81 81 76 67 64 61 59 52 54 58 60 62 69 70 64 66 71 74 78 74 73 73 72 72
59 58 58 58 59 59 57 68 69 67 66 71 75 75 82 89 92 88 90 85 84 77 64 68 62 55 62 64 66 64 62 61 69 72 67 66 69 72 77 75 72 72 71 70 70
59 59 58 58 58 59 57 68 71 76 64 79 80 80 86 87 79 85 88 77 73 64 66 63 57 68 70 70 67 66 63 61 70 73 68 64 69 74 74 75 75 73 72 70 68
57 58 58 57 58 63 65 73 77 74 62 72 79 79 80 83 79 80 84 78 70 63 64 60 68 75 73 70 67 63 62 62 65 69 69 66 59 64 71 75 77 76 75 72 69
57 57 57 56 63 59 67 77 79 72 54 67 75 80 82 82 77 89 87 81 70 68 67 64 73 74 72 69 70 59 70 71 69 63 56 64 50 59 65 70 73 74 71 71 70
56 57 57 56 53 57 72 73 77 70 45 74 77 87 83 78 78 80 87 78 71 71 67 67 69 68 68 72 75 68 71 67 67 58 55 56 52 58 63 63 66 66 69 70 70
56 56 56 57 54 61 68 70 68 55 46 70 79 75 73 76 79 80 79 81 79 69 70 70 76 75 74 77 74 74 67 61 57 53 47 53 53 54 58 63 73 67 70 70 70
55 56 54 61 57 64 67 66 53 44 69 69 72 75 72 71 74 75 72 67 63 56 56 65 69 74 78 68 71 66 54 45 45 45 46 55 53 56 63 67 72 68 69 70 71
53 53 52 60 56 61 63 59 45 61 65 76 73 74 68 72 72 73 69 64 67 63 56 55 55 67 75 68 64 60 57 46 41 41 47 57 50 57 67 69 71 73 71 70 69
52 49 54 59 62 63 57 46 50 59 71 68 71 66 66 71 70 68 65 64 69 66 58 53 58 72 76 76 73 61 55 59 50 46 45 49 56 64 67 68 68 69 69 68 68
49 46 50 64 67 61 52 47 55 68 71 70 59 64 59 63 63 61 62 70 70 72 68 62 55 68 74 74 70 67 68 54 47 40 38 46 50 52 59 64 66 65 65 66 68
47 50 62 67 67 56 46 49 61 70 71 66 62 61 63 60 61 60 63 70 72 73 68 63 58 61 67 61 60 61 56 53 51 47 41 39 47 59 62 63 65 66 68 68 67
47 46 65 69 55 51 49 58 61 68 71 68 67 65 63 62 59 60 63 66 74 72 64 65 56 54 60 68 73 66 60 55 45 46 45 44 46 64 65 66 66 66 68 68 70
42 47 63 65 48 48 55 63 66 66 66 66 65 67 68 62 54 60 64 73 74 68 61 60 51 46 53 57 63 60 63 58 51 47 46 43 46 65 65 66 66 66 67 69 70
43 42 52 54 54 53 52 56 58 68 67 69 66 67 63 58 58 58 61 70 72 71 66 62 51 50 49 54 57 56 61 61 54 44 47 48 53 61 64 64 65 65 67 69 70
43 43 48 45 50 49 49 56 57 57 64 63 61 62 60 54 55 56 60 64 69 67 63 60 53 54 57 61 61 61 61 61 57 55 50 55 53 61 63 63 66 67 66 67 64
42 42 46 45 49 50 49 51 56 59 59 58 57 63 60 52 57 56 57 54 57 61 56 55 51 50 51 61 61 59 62 61 61 61 57 58 55 64 66 63 64 66 65 64 62
46 46 45 44 46 46 48 54 57 58 61 63 61 60 57 59 61 61 59 59 58 55 56 54 51 47 43 58 57 49 57 61 62 61 59 54 59 64 63 67 65 61 64 62 62

GFSSW_sfc_temp_339.txt.gz
Temp
62 62 62 62 61 61 61 61 61 61 61 62 62 62 62 62 61 56 62 76 75 74 75 75 74 73 71 67 69 67 57 54 59 63 63 68 68 75 78 76 77 82 77 78 79
62 62 62 62 61 61 61 61 61 61 61 61 62 61 61 61 55 62 75 75 75 75 75 71 70 72 67 65 68 64 56 62 69 68 66 72 71 74 74 72 73 76 79 79 78
61 61 62 61 62 61 61 61 61 61 61 61 61 61 61 59 60 73 78 75 75 76 75 73 72 69 60 62 66 63 63 68 71 71 75 71 70 75 71 67 73 74 75 77 76
61 61 61 61 61 61 60 61 61 61 62 61 61 61 62 58 59 76 77 75 75 77 74 71 68 61 59 60 69 63 68 71 69 72 72 70 75 73 71 73 80 82 79 78 76
60 60 60 60 60 60 60 60 60 61 61 61 62 62 60 62 69 77 77 76 76 76 74 70 65 62 59 64 64 62 66 70 71 68 68 72 69 71 69 77 81 81 81 78 77
59 59 59 60 60 60 60 60 59 60 60 61 62 62 63 63 80 78 78 77 77 73 74 72 70 69 64 64 63 66 66 64 67 65 67 68 68 70 75 78 77 78 74 74 74
59 59 59 59 60 60 60 60 59 59 61 62 63 68 64 71 80 76 77 74 78 79 76 76 75 71 70 64 66 69 61 66 66 65 64 69 67 67 73 76 73 73 72 73 73
59 59 59 59 59 60 61 60 59 60 62 63 64 63 66 80 78 77 74 78 80 80 78 80 78 71 67 67 71 64 61 56 62 66 68 67 60 70 73 73 71 72 73 72 71
59 58 58 59 59 60 60 59 62 62 63 64 60 62 69 81 80 83 80 79 80 81 79 89 74 67 69 62 57 59 53 52 60 66 65 62 61 71 73 73 70 70 71 71 69
59 58 58 58 59 59 58 59 62 62 64 68 72 64 73 76 84 86 81 83 81 79 78 75 64 61 58 58 52 55 55 52 58 66 64 59 59 68 70 72 71 70 69 69 69
58 58 57 58 58 59 56 61 65 63 64 67 71 72 78 84 87 82 85 83 79 73 64 64 60 54 59 59 61 60 57 57 63 68 63 63 61 69 68 69 68 68 68 68 68
57 57 57 57 58 57 55 67 68 67 58 73 73 75 82 83 76 81 83 74 71 64 65 62 55 64 65 65 63 60 57 59 64 65 63 59 62 67 68 70 71 70 68 68 64
56 57 57 57 56 59 57 68 69 63 60 69 75 73 75 79 74 76 81 75 69 62 60 58 64 71 68 64 63 57 57 58 63 65 63 62 57 61 68 69 72 72 70 69 66
56 56 56 56 61 54 63 69 68 65 53 64 70 74 76 79 73 84 84 78 66 65 64 61 68 69 65 65 64 55 67 67 66 59 53 60 47 57 64 67 69 71 67 67 66
55 55 55 55 50 55 69 65 68 67 43 71 71 80 75 75 75 77 83 77 68 69 67 64 66 66 64 67 69 64 68 66 63 55 52 53 51 54 60 61 67 67 69 68 67
55 55 55 53 49 56 61 63 65 53 44 67 74 70 68 70 75 77 75 78 76 67 66 66 71 70 70 73 71 70 64 58 52 50 46 50 51 51 53 63 71 71 71 70 68
55 55 52 57 57 58 59 64 51 44 66 65 68 71 67 68 70 73 69 64 62 55 54 63 65 69 74 64 65 62 54 44 43 43 44 52 50 55 60 64 65 70 70 71 69
53 52 51 55 52 57 61 58 43 57 60 71 69 69 66 67 68 69 65 61 63 62 54 53 54 65 71 67 63 55 55 46 40 39 45 51 47 55 65 65 64 68 72 69 67
51 46 47 53 57 58 56 44 49 55 67 66 68 63 62 67 65 63 62 62 66 64 57 51 55 68 72 71 70 59 53 56 46 42 43 46 53 62 65 63 64 64 66 65 66
46 44 49 58 59 57 52 46 52 62 67 65 56 61 55 60 60 59 59 66 67 68 65 60 53 66 71 69 67 63 63 52 46 39 37 44 46 50 58 59 60 61 61 62 63
46 49 61 60 59 54 45 46 56 65 66 61 58 57 59 59 60 57 61 67 68 68 64 58 54 59 63 60 59 59 53 49 49 45 40 38 45 56 60 62 60 60 63 63 64
43 47 61 63 51 46 45 53 60 64 66 64 62 61 59 59 58 59 61 65 70 67 60 59 52 50 58 64 66 63 57 52 44 44 42 42 44 62 62 62 62 62 65 66 67
39 42 57 59 45 45 51 59 63 62 62 61 60 62 61 56 52 58 60 69 69 66 59 58 49 45 50 56 61 57 58 53 48 45 42 41 44 62 60 62 64 63 62 66 66
41 41 48 50 48 48 48 52 55 64 63 64 61 61 58 55 57 56 59 67 68 67 64 61 48 49 46 52 54 52 59 55 51 42 45 45 50 60 63 62 63 62 64 64 66
40 41 44 41 46 45 45 51 53 53 60 59 57 58 54 49 52 52 57 60 65 64 59 57 50 50 53 58 58 58 57 55 53 52 49 53 51 59 62 62 64 63 66 62 64
40 40 43 41 44 45 46 47 53 55 55 54 53 58 55 51 55 52 54 54 56 57 54 52 50 48 50 58 58 55 58 59 57 57 53 55 52 60 64 61 62 64 63 62 62
42 44 42 42 42 42 44 49 52 53 56 59 57 54 53 58 61 59 58 57 56 54 52 52 48 45 42 53 54 46 54 58 58 58 59 52 57 61 61 63 63 63 63 64 64

GFSSW_sfc_temp_342.txt.gz
Temp
62 62 62 61 61 61 61 61 61 61 61 61 62 61 61 61 61 54 59 74 72 74 76 74 71 70 68 65 66 62 56 52 57 59 61 65 69 72 75 74 73 76 72 73 74
61 61 61 61 61 61 61 61 61 61 61 61 61 61 61 61 53 58 73 74 74 75 73 70 68 69 65 63 64 62 55 60 66 66 65 69 69 72 72 71 69 71 74 75 73
61 61 61 61 61 60 60 61 61 61 61 61 61 61 61 58 57 71 78 74 74 74 73 71 70 68 60 60 63 59 61 65 67 68 69 67 67 73 69 65 71 70 71 72 71
60 61 61 60 61 60 60 60 61 61 61 61 61 61 62 55 58 73 77 74 75 76 73 69 66 60 58 59 63 58 64 66 67 69 68 68 72 69 70 72 77 75 75 73 71
60 60 60 60 60 60 60 60 60 61 61 61 61 62 57 61 69 73 76 76 75 75 71 68 63 61 58 60 62 59 62 66 67 67 66 71 67 68 71 75 78 76 76 74 73
59 59 60 60 60 60 60 60 59 59 60 61 62 62 59 60 77 76 74 74 73 71 71 69 69 69 62 60 59 62 62 63 65 64 65 68 64 69 71 74 74 75 73 73 73
59 59 59 59 59 60 60 59 58 59 60 62 63 65 62 71 77 75 75 72 73 75 73 73 72 68 66 61 64 63 61 66 65 64 63 67 67 65 71 73 71 71 71 71 72
58 58 58 59 59 60 60 59 59 60 61 63 64 61 65 76 76 76 70 75 75 75 75 76 73 67 64 65 67 62 60 54 60 65 67 67 60 68 71 70 68 69 69 69 69
58 57 58 58 59 59 59 58 62 63 63 64 58 58 68 76 77 80 78 76 76 76 76 86 71 64 66 59 56 58 51 51 58 64 64 62 60 67 70 69 66 66 67 68 66
57 57 57 57 58 58 57 59 63 62 63 66 69 61 72 72 79 82 77 78 76 74 73 71 63 60 56 56 50 53 53 51 54 63 60 55 59 63 66 68 66 65 66 66 66
57 56 56 56 57 57 55 58 62 61 65 64 68 69 75 81 82 77 80 78 75 72 60 63 60 55 58 58 59 60 56 57 59 65 61 59 64 64 66 65 63 64 64 65 65
56 56 56 56 57 56 54 64 62 62 55 67 67 70 77 79 73 76 81 72 67 61 61 60 53 62 64 63 61 60 57 56 60 62 63 57 62 62 65 64 64 65 65 66 63
55 55 56 56 55 56 54 64 65 61 53 64 70 68 72 76 71 73 79 71 65 61 58 56 62 68 67 62 60 56 56 55 58 58 59 57 54 58 65 67 68 67 67 67 66
55 55 55 54 59 51 60 61 61 60 50 61 66 72 73 74 70 80 80 76 65 64 62 58 65 65 61 62 63 52 64 64 62 55 50 56 47 53 59 63 65 65 66 66 66
55 55 55 54 48 52 65 59 60 63 40 67 67 75 70 72 72 74 79 74 66 67 64 62 63 62 60 64 66 63 64 62 59 53 50 52 49 55 56 58 63 66 66 67 67
55 55 54 51 47 53 57 57 63 51 42 63 69 65 64 68 70 72 73 76 72 66 64 64 68 67 67 69 68 68 61 56 51 48 44 49 50 51 52 62 67 69 70 70 68
54 54 52 54 56 55 57 62 51 42 62 62 63 67 64 65 67 68 66 61 60 53 54 59 62 67 71 64 64 60 54 43 43 43 43 48 48 54 59 63 66 69 72 72 68
53 52 49 53 49 55 58 55 41 54 56 67 66 64 60 65 64 65 63 59 61 60 53 51 52 64 70 65 61 56 54 45 39 38 45 48 45 56 62 64 64 65 67 71 66
51 46 46 51 52 51 55 43 47 52 62 61 63 58 57 62 62 61 60 60 64 63 56 49 54 66 69 69 67 56 53 54 45 40 41 44 51 61 62 64 62 62 63 63 63
47 44 49 55 55 54 51 45 50 58 62 61 55 60 54 57 57 56 57 64 63 65 63 57 52 64 67 67 63 60 61 51 44 38 37 42 45 49 56 61 61 60 60 60 60
44 48 58 55 56 52 43 45 53 61 62 58 54 54 56 55 55 55 59 64 65 63 61 58 54 57 61 58 58 56 51 48 47 43 39 37 44 54 59 61 62 61 60 59 60
41 46 58 57 50 42 42 50 57 60 62 61 58 57 55 56 54 54 57 61 68 66 59 56 51 48 56 59 61 56 55 50 43 43 40 40 44 58 60 61 60 62 62 61 62
38 40 53 56 43 42 47 55 59 59 58 58 56 59 57 53 49 55 58 67 68 65 59 57 48 43 50 54 57 55 56 51 46 43 40 40 44 60 59 59 60 61 61 62 62
40 41 46 47 44 44 44 50 53 61 60 61 58 57 53 50 53 53 55 64 66 65 62 60 47 48 44 50 51 50 54 51 49 41 44 44 49 58 62 61 62 61 62 61 61
39 39 41 39 43 42 42 48 50 51 57 57 53 55 50 46 49 50 55 59 64 62 56 56 50 47 51 55 54 54 55 53 51 50 49 54 48 57 60 61 62 63 62 61 62
38 38 42 39 41 42 44 43 49 52 52 53 52 55 51 47 52 51 53 52 55 55 51 50 48 48 47 55 55 53 56 55 54 52 51 52 51 59 60 60 62 62 62 61 62
40 43 43 40 40 40 41 45 49 50 54 55 53 51 50 54 55 57 56 55 55 52 50 49 46 43 41 50 51 45 51 55 55 55 56 50 55 58 60 61 61 62 62 62 62

GFSSW_sfc_temp_345.txt.gz
Temp
62 62 61 61 61 61 61 61 61 62 62 62 62 62 62 61 61 67 75 84 82 73 76 84 85 84 84 83 83 80 80 76 74 73 77 81 80 83 85 83 84 85 84 86 82
61 61 61 61 61 61 61 61 61 61 62 62 62 62 61 61 66 70 80 73 74 74 87 85 82 83 84 81 83 83 78 77 80 81 81 82 83 82 83 81 81 81 82 83 81
61 61 61 61 61 61 61 61 61 61 61 61 62 62 61 63 70 83 77 74 73 78 88 87 85 84 81 82 80 77 79 78 80 82 83 81 81 82 82 77 82 82 81 82 81
60 61 61 60 61 60 60 60 61 61 61 61 61 62 62 65 72 87 77 75 75 85 87 84 83 81 79 79 81 77 78 78 78 80 82 81 82 80 82 84 89 88 85 83 81
60 60 60 60 60 60 60 60 60 61 61 61 61 62 65 74 81 82 76 77 83 85 85 83 82 80 80 80 79 78 76 75 77 81 79 80 77 79 82 84 87 87 83 83 83
59 59 59 59 60 60 60 60 59 59 59 60 62 62 71 75 86 82 82 82 85 86 83 84 84 84 80 77 78 74 75 75 78 79 80 78 77 79 84 84 84 83 83 84 83
58 58 58 58 59 59 60 59 58 59 60 61 63 67 73 81 87 84 86 86 84 85 84 85 86 84 82 76 76 75 74 77 76 77 77 80 76 77 83 84 83 83 83 83 83
58 57 57 58 58 59 59 58 60 61 62 63 64 70 77 86 86 84 85 86 86 86 85 88 87 84 80 80 77 74 75 74 74 78 75 79 76 80 82 82 81 82 82 82 82
58 57 57 57 58 59 58 58 62 63 64 64 69 73 79 78 84 89 89 88 87 86 86 88 85 78 78 76 73 73 72 70 72 77 76 78 78 77 82 82 80 80 81 82 82
57 56 56 57 57 58 57 58 63 65 67 70 73 73 83 82 88 88 86 88 87 86 83 83 81 78 74 74 68 69 68 70 71 75 75 75 76 77 79 81 80 80 81 81 81
57 56 56 56 57 57 60 73 76 75 75 75 77 75 79 87 89 87 87 85 86 83 77 76 76 73 74 72 73 74 71 72 74 76 75 75 78 82 80 79 80 80 79 79 80
56 56 56 56 56 56 64 72 69 71 64 75 73 74 79 85 79 84 89 83 80 74 75 74 71 75 74 73 72 72 71 71 74 73 73 75 73 80 78 80 81 80 79 79 79
55 55 56 56 55 63 64 71 73 71 64 72 74 74 78 82 77 80 87 82 77 72 73 71 74 74 73 70 69 69 70 69 72 69 73 70 71 74 79 78 79 80 82 81 80
55 55 55 54 64 60 71 70 69 70 64 69 74 79 79 82 78 86 89 84 76 74 72 72 76 74 72 72 74 66 74 74 70 70 67 72 66 69 74 75 77 80 80 80 80
55 55 55 54 57 65 71 69 71 69 52 73 75 86 80 80 81 80 86 83 74 73 73 71 71 72 70 73 74 73 75 73 72 69 67 65 66 75 69 71 76 79 81 81 82
55 55 54 57 56 64 66 67 71 62 50 68 76 74 74 78 79 81 82 85 82 75 73 74 77 77 77 76 76 73 71 69 67 67 61 69 67 71 72 76 81 84 84 83 82
55 54 53 58 68 64 67 72 61 53 68 67 69 74 73 72 75 78 75 74 71 64 65 71 73 77 78 74 73 72 70 62 60 60 60 63 63 71 77 78 79 83 84 86 84
53 52 54 58 61 62 68 68 51 61 62 71 71 71 69 73 73 74 71 70 70 71 66 64 63 73 78 77 74 71 70 63 52 55 62 60 60 71 76 79 80 80 81 79 83
51 58 60 64 61 60 69 56 58 60 66 66 70 66 66 70 71 71 69 70 73 72 64 61 63 74 74 77 76 66 65 69 59 55 59 65 65 74 76 75 76 77 77 79 78
52 54 63 64 63 65 65 53 60 64 67 68 62 65 61 65 67 68 67 72 71 73 74 68 60 71 74 76 73 71 70 63 62 53 52 60 60 68 72 76 77 77 79 78 75
54 60 64 64 64 65 58 58 60 67 67 65 62 62 64 63 65 65 67 71 73 69 72 68 66 67 72 70 70 66 66 61 64 62 58 56 63 73 75 78 78 80 79 78 75
53 58 65 66 62 55 57 58 57 66 68 67 67 65 64 64 64 64 64 68 75 74 69 69 63 60 67 71 72 71 69 67 63 58 58 59 63 75 77 79 77 79 79 78 76
49 53 65 65 56 56 57 60 63 65 66 65 64 66 65 63 58 62 66 74 73 72 67 66 61 58 63 66 68 67 67 66 61 61 57 59 64 74 74 73 76 77 81 79 76
50 53 59 60 56 54 52 57 59 67 65 67 66 67 64 61 64 62 64 70 72 73 62 67 60 62 59 64 67 63 65 65 66 62 65 64 69 73 75 74 77 76 78 79 78
49 49 48 51 53 51 52 54 55 57 65 65 62 63 61 57 59 59 64 67 72 65 67 66 62 61 65 65 65 67 67 65 62 67 62 69 65 74 77 76 78 79 78 77 77
48 47 50 49 48 50 50 53 53 54 57 59 59 62 62 58 61 59 63 63 64 67 66 62 62 61 62 66 65 62 67 66 66 66 64 66 65 76 78 77 75 77 78 76 78
49 50 47 46 47 49 51 51 51 53 58 60 56 55 56 60 61 63 64 64 65 62 62 61 61 57 56 64 64 56 63 66 68 70 70 65 74 77 74 75 76 78 78 77 77